Tracking 20712 objects as of 29-May-2020
HD Live streaming from Space Station
objects crossing your sky now

SL-14 DEB

Track SL-14 DEB now!
10-day predictions


NORAD ID: 26015
Int'l Code: 1991-068AA
Perigee: 1,367.0 km
Apogee: 1,475.3 km
Inclination: 82.5 °
Period: 114.1 minutes
Semi major axis: 7792 km
RCS: 0.084 m2 (small)
Launch date: September 28, 1991
Source: Commonwealth of Independent States (former USSR) (CIS)
Launch site: PLESETSK MISSILE AND SPACE COMPLEX (PKMTR)

Note: This is SATELLITE DEBRIS
aabbcc
Your satellite tracking list
Your tracking list is empty




NASA's NSSDC Master Catalog

Two Line Element Set (TLE):
1 26015U 91068AA  20150.08257088 -.00000017  00000-0 -15599-3 0  9996
2 26015  82.4797 265.2949 0069434 125.7320  49.7979 12.62166681318901
Source of the keplerian elements: AFSPC